Time,TemperatureF,DewpointF,PressureIn,WindDirection,WindDirectionDegrees,WindSpeedMPH,WindSpeedGustMPH,Humidity,HourlyPrecipIn,Conditions,Clouds,dailyrainin,SoftwareType,DateUTC
2013-07-06 00:00:00,68.8,67.6,29.90,SE,131,1.0,1.0,96,0.00,,,1.25,Wunderground v.1.15,2013-07-06 04:00:00,
2013-07-06 00:05:00,68.6,67.4,29.90,SE,131,0.0,6.0,96,0.00,,,0.00,Wunderground v.1.15,2013-07-06 04:05:00,
2013-07-06 00:10:00,68.5,67.3,29.90,SE,131,0.0,6.0,96,0.00,,,0.00,Wunderground v.1.15,2013-07-06 04:10:00,
2013-07-06 00:15:00,68.5,67.6,29.90,SE,131,0.0,6.0,97,0.00,,,0.00,Wunderground v.1.15,2013-07-06 04:15:00,
2013-07-06 00:25:00,68.4,67.5,29.90,SE,131,0.0,6.0,97,0.00,,,0.00,Wunderground v.1.15,2013-07-06 04:25:00,
2013-07-06 00:35:00,68.2,67.3,29.90,SE,131,0.0,6.0,97,0.00,,,0.00,Wunderground v.1.15,2013-07-06 04:35:00,
2013-07-06 00:45:00,68.2,67.3,29.90,SE,131,0.0,6.0,97,0.00,,,0.00,Wunderground v.1.15,2013-07-06 04:45:00,
2013-07-06 00:55:00,68.3,67.4,29.90,SE,131,0.0,6.0,97,0.00,,,0.00,Wunderground v.1.15,2013-07-06 04:55:00,
2013-07-06 01:05:00,68.2,67.6,29.90,SE,131,0.0,6.0,98,0.00,,,0.00,Wunderground v.1.15,2013-07-06 05:05:00,
2013-07-06 01:15:00,68.1,67.5,29.90,SE,131,0.0,6.0,98,0.00,,,0.00,Wunderground v.1.15,2013-07-06 05:15:00,
2013-07-06 01:20:00,67.9,67.3,29.90,SE,131,0.0,6.0,98,0.00,,,0.00,Wunderground v.1.15,2013-07-06 05:20:00,
2013-07-06 01:30:00,68.0,67.4,29.90,WSW,240,0.0,6.0,98,0.00,,,0.00,Wunderground v.1.15,2013-07-06 05:30:00,
2013-07-06 01:40:00,67.9,67.3,29.91,WSW,240,0.0,6.0,98,0.00,,,0.00,Wunderground v.1.15,2013-07-06 05:40:00,
2013-07-06 01:50:00,67.7,67.1,29.90,WSW,240,0.0,6.0,98,0.00,,,0.00,Wunderground v.1.15,2013-07-06 05:50:00,
2013-07-06 02:00:00,67.7,67.1,29.90,SW,233,0.0,6.0,98,0.00,,,0.00,Wunderground v.1.15,2013-07-06 06:00:00,
2013-07-06 02:10:00,67.8,67.2,29.90,SW,233,0.0,6.0,98,0.00,,,0.00,Wunderground v.1.15,2013-07-06 06:10:00,
2013-07-06 02:20:00,67.6,67.0,29.90,SW,233,0.0,6.0,98,0.00,,,0.00,Wunderground v.1.15,2013-07-06 06:20:00,
2013-07-06 02:30:00,67.6,67.3,29.90,SW,233,0.0,6.0,99,0.00,,,0.00,Wunderground v.1.15,2013-07-06 06:30:00,
2013-07-06 02:35:00,67.7,67.1,29.90,SW,233,0.0,6.0,98,0.00,,,0.00,Wunderground v.1.15,2013-07-06 06:35:00,
2013-07-06 02:45:00,67.6,67.3,29.90,SW,233,0.0,6.0,99,0.00,,,0.00,Wunderground v.1.15,2013-07-06 06:45:00,
2013-07-06 02:55:00,67.5,67.2,29.90,SW,233,0.0,6.0,99,0.00,,,0.00,Wunderground v.1.15,2013-07-06 06:55:00,
2013-07-06 03:00:00,67.4,67.1,29.90,ESE,117,1.0,6.0,99,0.00,,,0.00,Wunderground v.1.15,2013-07-06 07:00:00,
2013-07-06 03:10:00,67.2,66.6,29.90,ESE,117,0.0,6.0,98,0.00,,,0.00,Wunderground v.1.15,2013-07-06 07:10:00,
2013-07-06 03:20:00,67.3,67.0,29.90,ESE,117,0.0,6.0,99,0.00,,,0.00,Wunderground v.1.15,2013-07-06 07:20:00,
2013-07-06 03:25:00,67.4,67.1,29.90,ESE,117,0.0,6.0,99,0.00,,,0.00,Wunderground v.1.15,2013-07-06 07:25:00,
2013-07-06 03:30:00,67.4,67.1,29.90,ESE,117,0.0,6.0,99,0.00,,,0.00,Wunderground v.1.15,2013-07-06 07:30:00,
2013-07-06 03:40:00,67.1,66.8,29.90,ESE,117,1.0,1.0,99,0.00,,,0.00,Wunderground v.1.15,2013-07-06 07:40:00,
2013-07-06 03:50:00,66.9,66.6,29.90,ESE,117,0.0,6.0,99,0.00,,,0.00,Wunderground v.1.15,2013-07-06 07:50:00,
2013-07-06 04:00:00,66.7,66.4,29.89,ESE,117,0.0,6.0,99,0.00,,,0.00,Wunderground v.1.15,2013-07-06 08:00:00,
2013-07-06 04:05:00,66.6,66.3,29.89,ESE,117,0.0,6.0,99,0.00,,,0.00,Wunderground v.1.15,2013-07-06 08:05:00,
2013-07-06 04:15:00,66.5,66.2,29.89,ESE,117,0.0,6.0,99,0.00,,,0.00,Wunderground v.1.15,2013-07-06 08:15:00,
2013-07-06 04:25:00,66.2,65.9,29.90,ESE,117,0.0,6.0,99,0.00,,,0.00,Wunderground v.1.15,2013-07-06 08:25:00,
2013-07-06 04:30:00,66.0,65.7,29.90,ESE,117,0.0,6.0,99,0.00,,,0.00,Wunderground v.1.15,2013-07-06 08:30:00,
2013-07-06 04:40:00,65.8,65.5,29.90,ESE,117,1.0,6.0,99,0.00,,,0.00,Wunderground v.1.15,2013-07-06 08:40:00,
2013-07-06 04:50:00,66.4,66.1,29.91,ESE,117,2.0,2.0,99,0.00,,,0.00,Wunderground v.1.15,2013-07-06 08:50:00,
2013-07-06 05:00:00,66.7,66.4,29.91,ESE,117,1.0,1.0,99,0.00,,,0.00,Wunderground v.1.15,2013-07-06 09:00:00,
2013-07-06 05:10:00,67.0,66.7,29.91,ESE,117,2.0,6.0,99,0.00,,,0.00,Wunderground v.1.15,2013-07-06 09:10:00,
2013-07-06 05:15:00,67.1,66.8,29.91,ESE,117,2.0,6.0,99,0.00,,,0.00,Wunderground v.1.15,2013-07-06 09:15:00,
2013-07-06 05:25:00,67.2,66.9,29.91,ESE,117,1.0,6.0,99,0.00,,,0.00,Wunderground v.1.15,2013-07-06 09:25:00,
2013-07-06 05:35:00,67.4,67.1,29.91,ESE,117,1.0,6.0,99,0.00,,,0.00,Wunderground v.1.15,2013-07-06 09:35:00,